Погода в Кутане

Россия / Республика Саха (Якутия)     59°00′51″N   131°45′01″E
темп.,
°C
ветер,
м/с
пор.,
м/с
влажн.,
%
обл.,
%
осадки,
мм/ч
давл.,
гПа
погр.,
м
27 февраля, сб
сб2700:00−29в12940 0.0 103219
03:00−31вюв11940 0.0 103019
06:00−32в11930 0.0 103019
09:00−28всв12922 0.0 102787
12:00−21всв248767 0.0 1025343
15:00−17всв368884 0.0 1018409
18:00−19ссв2295100 0.0 101771
21:00−20ссв0195100 0.0 101429
28 февраля, вс
вс2800:00−20зюз3599100 1.6 1012295
03:00−21з4997100 2.4 1013690
06:00−21з51194100 0.3 1016929
09:00−20з61091100 0.4 10201265
12:00−21з6983100 0.1 10231204
15:00−22з51082100 0.1 10241293
18:00−23з3990100 0.0 1027636
21:00−23з4993100 0.1 1029795
1 марта, пн
пн100:00−24з41088100 0.0 1029690
03:00−26з31092100 0.0 1030489
06:00−26з3994100 0.0 1030673
09:00−25з4891100 0.1 10301021
12:00−24з5786100 0.1 10281131
15:00−23з4784100 0.2 10281218
18:00−25з2892100 0.1 1029406
21:00−26з3993100 0.1 1029337
2 марта, вт
вт200:00−27з3796100 0.0 1029276
03:00−30з2498100 0.1 102896
06:00−31зюз1298100 0.0 102920
09:00−30зюз2397100 0.1 1029179
12:00−25з248998 0.0 1027534
15:00−23з238398 0.0 1026926
18:00−28ю1193100 0.0 102619
21:00−31ююв129485 0.0 102719
3 марта, ср
ср300:00−33ююв119668 0.0 102619
03:00−34ююв119366 0.0 102619
06:00−36юв118955 0.0 102519
09:00−31вюв018958 0.0 102458
12:00−24ссв118354 0.0 1021400
15:00−23ссв238751 0.0 1018522
18:00−29ссв119431 0.0 101819
21:00−32зюз119958 0.0 101919